{"data":{"norad_id":58207,"intl_designator":"2023-170B","name":"STARLINK-30845","alt_names":[],"object_type":"PAYLOAD","status":"ACTIVE","operator":null,"country":"US","launch_date":"2023-11-03","launch_site_code":"AFETR","launch_vehicle":null,"mission":null,"orbit_class":"UNKNOWN","rcs_meters":null,"size_class":null,"mass_kg":null,"dimensions":null,"purposes":["comms"],"wikipedia_slug":null,"has_3d_model":false,"image_url":null,"decayed_at":null,"tle_current":{"epoch":"2026-09-20T13:37:33.284640Z","epoch_age_seconds":137788,"freshness":"FRESH","line1":"1 58207U 23170B   26263.56774635  .00014954  00000+0  91908-3 0  9999","line2":"2 58207  42.9973 210.2620 0004672 134.1473 225.9756 15.09869763159671","mean_motion":15.09869763,"eccentricity":0.0004672,"inclination_deg":42.9973,"raan_deg":210.262,"arg_perigee_deg":134.1473,"mean_anomaly_deg":225.9756,"bstar":0.00091908,"rev_number":15967,"period_min":95.372464254058,"perigee_km":533.36704049071,"apogee_km":539.82816850516,"semimajor_km":6914.7346044979,"source":"CELESTRAK","updated_at":"2026-09-21T09:00:33.831096Z"}}}